Location: Newark
(45.4422°N, 16.2769°E)
Time: 12:21:52
(UTC+00:00)

Courier 1B Rocket - Pass Details

Date: 13 December 2019
Orbit: 920 x 1202 km, 28.2° (Epoch: 18 January)

Event Time Altitude Azimuth Distance (km) Brightness Sun altitude
Rises 05:12:51 0° 232° (SW) 3,872 7.8 -12.3°
Reaches altitude 10° 05:16:43 10° 213° (SSW) 2,857 7.3 -11.6°
Maximum altitude 05:20:55 17° 175° (S) 2,319 7.3 -10.9°
Drops below altitude 10° 05:24:57 10° 137° (SE) 2,735 8.5 -10.3°
Sets 05:28:32 0° 118° (ESE) 3,636 10.3 -9.7°
